{"data":{"norad_id":62982,"intl_designator":"2025-031B","name":"STARLINK-11458 [DTC]","alt_names":[],"object_type":"PAYLOAD","status":"ACTIVE","operator":null,"country":"US","launch_date":"2025-02-11","launch_site_code":"AFETR","launch_vehicle":null,"mission":null,"orbit_class":"UNKNOWN","rcs_meters":null,"size_class":null,"mass_kg":null,"dimensions":null,"purposes":["comms"],"wikipedia_slug":null,"has_3d_model":false,"image_url":null,"decayed_at":null,"tle_current":{"epoch":"2026-09-21T17:11:02.997024Z","epoch_age_seconds":60140,"freshness":"FRESH","line1":"1 62982U 25031B   26264.71600691  .00221865  00000+0  16831-2 0  9992","line2":"2 62982  42.9989 259.7562 0000335 266.3404  93.7425 15.70891213 93573","mean_motion":15.70891213,"eccentricity":3.35e-5,"inclination_deg":42.9989,"raan_deg":259.7562,"arg_perigee_deg":266.3404,"mean_anomaly_deg":93.7425,"bstar":0.0016831,"rev_number":9357,"period_min":91.667709901437,"perigee_km":356.12308393602,"apogee_km":356.5742944772,"semimajor_km":6734.4856892066,"source":"CELESTRAK","updated_at":"2026-09-22T09:00:49.716363Z"}}}